Flag for Austria Weather past 2 weeks in Bad Radkersburg, Styria, Austria

Now
58 °F

Cool.


Feels Like: 58 °F
Forecast: 55 / 71 °F
Wind: 2 mph from Southwest

Location: Murska Sobota

Current Time: Apr 27, 2015 at 1:02:50 AM

Latest Report: Apr 27, 2015 at 12:00 AM


Visibility: N/A

Pressure: 29.80 "Hg

Humidity: 70%

Dew point: 48 °F

Location of Bad RadkersburgLocation

Historic Weather in Bad Radkersburg — Graph

°F

Bad Radkersburg temperature yesterday

Maximum temperature yesterday: 74 °F (at 4:00 PM)
Minimum temperature yesterday: 52 °F (at 7:00 AM)
Average temperature yesterday: 64 °F

Past Weeks' High & Low Weather Summary

 TemperatureHumidityPressure
High78 °F (Apr 16, 2:00 PM)96% (Apr 25, 6:00 AM)30.44 "Hg (Apr 25, 6:00 AM)
Low31 °F (Apr 19, 6:00 AM)20% (Apr 21, 6:00 PM)29.77 "Hg (Apr 26, 6:00 PM)
Average57 °F58%30.09 "Hg
* Reported Apr 11 11:00 PM — Apr 26 11:00 PM, Bad Radkersburg, Weather by CustomWeather, © 2015

Note: Actual official high and low records may vary slightly from our data, if they occured in-between our weather recording intervals... More about our weather records

Advertising

Bad Radkersburg weather history for previous 24 hours

 ConditionsComfort  
Time TempWeatherWind HumidityBarometerVisibility
11:00 PM
Sun, Apr 26
59 °FCool.2 mph66%29.80 "HgN/A
10:00 PM61 °FCool.2 mph62%29.80 "HgN/A
9:00 PM63 °FMild.2 mph56%29.80 "HgN/A
8:00 PM65 °FPassing clouds.3 mph51%29.79 "Hg6 mi
7:00 PM69 °FMild.7 mph45%29.78 "HgN/A
6:00 PM71 °FMild.6 mph43%29.77 "HgN/A
5:00 PM72 °FMild.3 mph42%29.78 "HgN/A
4:00 PM74 °FMild.5 mph41%29.79 "HgN/A
3:00 PM73 °FScattered clouds.3 mph43%29.81 "Hg12 mi
2:00 PM70 °FScattered clouds.2 mph46%29.83 "Hg6 mi
1:00 PM70 °FMild.3 mph44%29.85 "HgN/A
12:00 PM70 °FMild.2 mph45%29.86 "HgN/A
11:00 AM67 °FMild.2 mph51%29.86 "HgN/A
10:00 AM64 °FMild.1 mph58%29.87 "HgN/A
9:00 AM61 °FCool.2 mph62%29.86 "HgN/A
8:00 AM58 °FPassing clouds.1 mph66%29.86 "Hg6 mi
7:00 AM52 °FScattered clouds.No wind79%29.86 "Hg6 mi
6:00 AM54 °FCool.1 mph70%29.85 "HgN/A
5:00 AM56 °FCool.5 mph64%29.84 "HgN/A
4:00 AM57 °FCool.6 mph62%29.84 "HgN/A
3:00 AM59 °FRefreshingly cool.6 mph57%29.83 "HgN/A
2:00 AM59 °FRefreshingly cool.6 mph59%29.84 "HgN/A
1:00 AM60 °FCool.5 mph62%29.84 "HgN/A
Weather by CustomWeather, © 2015

See weather overviewHow to use our weather pages